This is the latest recevied weather packets stored in our database for station/object KN6ETB-1. If no packets are shown the sender has not sent any weather packets the latest 1 day(s).
| Time | Temp. | Humidity | Pressure | Rain* | Wind** | Luminosity | Snow |
|---|---|---|---|---|---|---|---|
| 1778007721 | 15.56° C | 84% | 1013.3 hPa | 0 mm | 0.45 m/s, 289° | 77 W/m² | - |
| 1778007419 | 15.56° C | 84% | 1013.3 hPa | 0 mm | 0.89 m/s, 333° | 150 W/m² | - |
| 1778007115 | 15.56° C | 84% | 1013 hPa | 0 mm | 0.89 m/s, 339° | 196 W/m² | - |
| 1778006811 | 15.56° C | 85% | 1013.2 hPa | 0 mm | 0 m/s | 89 W/m² | - |
| 1778006508 | 15.56° C | 85% | 1013.3 hPa | 0 mm | 0.45 m/s, 279° | 172 W/m² | - |
| 1778006205 | 15° C | 85% | 1013 hPa | 0 mm | 0 m/s | 160 W/m² | - |
| 1778005903 | 15° C | 84% | 1013.1 hPa | 0 mm | 1.79 m/s, 297° | 140 W/m² | - |
| 1778005599 | 15° C | 84% | 1013.2 hPa | 0 mm | 2.24 m/s, 349° | 130 W/m² | - |
| 1778005296 | 15° C | 84% | 1013.2 hPa | 0 mm | 1.34 m/s, 312° | 180 W/m² | - |
| 1778004992 | 15° C | 84% | 1012.8 hPa | 0 mm | 0.89 m/s, 348° | 383 W/m² | - |
| 1778004690 | 15° C | 85% | 1013.1 hPa | 0 mm | 2.68 m/s, 320° | 308 W/m² | - |
| 1778004386 | 15° C | 86% | 1013.1 hPa | 0 mm | 2.24 m/s, 307° | 314 W/m² | - |
| 1778004084 | 15° C | 86% | 1013.1 hPa | 0 mm | 1.79 m/s, 296° | 260 W/m² | - |
| 1778003779 | 14.44° C | 87% | 1013.1 hPa | 0 mm | 1.79 m/s, 326° | 217 W/m² | - |
| 1778003476 | 14.44° C | 87% | 1013.1 hPa | 0 mm | 2.24 m/s, 333° | 152 W/m² | - |
| 1778003172 | 14.44° C | 88% | 1013 hPa | 0 mm | 1.34 m/s, 310° | 182 W/m² | - |
| 1778002868 | 14.44° C | 88% | 1013.1 hPa | 0 mm | 2.68 m/s, 342° | 100 W/m² | - |
| 1778002566 | 14.44° C | 88% | 1012.8 hPa | 0 mm | 0.45 m/s, 331° | 138 W/m² | - |
| 1778002262 | 15° C | 87% | 1012.6 hPa | 0 mm | 2.24 m/s, 312° | 134 W/m² | - |
| 1778001960 | 15° C | 87% | 1012.8 hPa | 0 mm | 0.45 m/s, 315° | 124 W/m² | - |
| 1778001657 | 14.44° C | 86% | 1012.6 hPa | 0 mm | 0.45 m/s, 47° | 119 W/m² | - |
| 1778001357 | 15° C | 86% | 1012.6 hPa | 0 mm | 1.79 m/s, 349° | 127 W/m² | - |
| 1778001054 | 15° C | 86% | 1012.7 hPa | 0 mm | 0.45 m/s, 310° | 221 W/m² | - |
| 1778000751 | 14.44° C | 86% | 1012.7 hPa | 0 mm | 0.45 m/s, 22° | 153 W/m² | - |
| 1778000447 | 15° C | 86% | 1012.7 hPa | 0 mm | 0.89 m/s, 131° | 213 W/m² | - |
* Rain latest hour (hover to see other rain measurements)
** Current wind speed in m/s (hover to see current wind gust speed)